Regional Weather Roundup
Issued by NWS

Home | Current Version | Previous Version | Text Only | Print | Product List | Glossary On
Versions: 1 2 3 4 5 6 7 8 9 10 11 12 13 14 15 16 17 18 19 20 21 22 23 24 25 26 27 28 29 30 31 32 33 34 35 36 37 38 39 40 41 42 43 44 45 46 47 48 49 50
000
ASUS43 KTOP 301559
RWRKS

WEATHER ROUNDUP FOR KANSAS
NATIONAL WEATHER SERVICE GOODLAND KS
1100 AM CDT SAT APR 30 2016

NOTE:  "FAIR" INDICATES FEW OR NO CLOUDS BELOW 12,000 FEET WITH NO
SIGNIFICANT WEATHER AND/OR OBSTRUCTIONS TO VISIBILITY.

KSZ001>006-013>018-027>032-041>047-301700-
NORTHWEST KANSAS

CITY           SKY/WX    TMP DP  RH WIND       PRES   REMARKS
GOODLAND       CLOUDY    34  32  92 NW17      29.81S WCI  23
HAYS           CLOUDY    46  37  71 NW15      29.77R
HILL CITY      CLOUDY    43  39  86 NW15      29.79R
RUSSELL        MOSUNNY   52  46  80 W18       29.73S
$$

KSZ061>065-074>080-084>089-301700-
SOUTHWEST KANSAS

CITY           SKY/WX    TMP DP  RH WIND       PRES   REMARKS
DODGE CITY     CLOUDY    44  36  73 W15G21    29.82R
ELKHART          N/A     47  34  61 W14         N/A
GARDEN CITY    CLOUDY    43  35  73 NW21      29.82R
GREAT BEND     CLOUDY    46  39  76 NW15G21   29.77S
LIBERAL        PTSUNNY   46  37  71 NW16      29.87R
$$

KSZ066>073-081>083-090>101-301700-
SOUTHEAST KANSAS

CITY           SKY/WX    TMP DP  RH WIND       PRES   REMARKS
CHANUTE        CLOUDY    60  52  74 SW12      29.73R
COFFEYVILLE    CLOUDY    60  53  77 SW12      29.76R
HUTCHINSON     CLOUDY    52  44  74 W14       29.76R
MEDICINE LODGE   N/A     51  42  71 W12       29.81R
NEWTON         CLOUDY    52  43  71 W14       29.77R
PARSONS        CLOUDY    61  55  81 W10       29.76R
WICHITA INTL   PTSUNNY   53  45  74 W16       29.77R
WICHITA JABRA  CLOUDY    52  44  74 W17       29.76R
WINFIELD       CLOUDY    52  47  83 W15       29.80R
$$

KSZ007>012-019>026-033>040-048>060-102>105-301700-
NORTHEAST KANSAS

CITY           SKY/WX    TMP DP  RH WIND       PRES   REMARKS
CONCORDIA      CLOUDY    50  47  89 W9        29.70R
EMPORIA        CLOUDY    54  49  83 W12       29.73R
LAWRENCE       CLOUDY    60  55  83 W14       29.68R
MANHATTAN      CLOUDY    54  47  77 W9        29.70R
OLATHE IND     CLOUDY    63  57  81 SW16      29.68R
OLATHE EXE     PTSUNNY   64  58  80 W16       29.66R
SALINA         CLOUDY    54  48  80 W17       29.73R
TOPEKA BILLARD CLOUDY    56  51  84 SW12      29.69R
TOPEKA FORBES  CLOUDY    58  52  80 W17       29.69R
$$




USA.gov is the U.S. government's official web portal to all federal, state and local government web resources and services.